Date String (YYYY-MM-DD hh:mm:ss) UTC,Instrument flags,Ambient pressure (hPa),Sample flow (lpm),Bypass flow (lpm),Sample temperature (°C),Ambient temperature (°C),ASC tube jacket temperature (°C),LED temperature (°C),Box temperature (°C),Sample RH (%),Span deviation,Mass concentration (μg/m³),Mass concentration (μg/m³),Mass concentration (μg/m³)
DateTimeUTC,F1_M11,P_M11,Q1_M11,Q2_M11,T1_M11,T2_M11,T3_M11,T4_M11,T5_M11,U1_M11,ZSPAN_M11,X0_M11,X2_M11,X1_M11
2023-05-30 08:00:00,,0830.1,5.00,0.00,30.1,28.5,00.0,38.4,31.7,21.4,0000.0,0015.81,0005.25,0003.86
2023-05-30 08:01:00,,0830.0,5.01,0.00,30.1,28.5,00.0,38.4,31.7,21.4,0000.0,0014.76,0005.28,0003.86
2023-05-30 08:02:00,,0830.0,5.00,0.00,30.1,28.5,00.0,38.4,31.7,21.4,0000.0,0014.83,0005.29,0003.85
2023-05-30 08:03:00,,0830.1,5.00,0.00,30.1,28.4,00.0,38.4,31.7,21.4,0000.0,0015.45,0005.28,0003.85
2023-05-30 08:04:00,,0830.0,5.00,0.00,30.1,28.5,00.0,38.4,31.7,21.4,0000.0,0014.80,0005.18,0003.84
2023-05-30 08:05:00,,0830.0,5.00,0.00,30.1,28.5,00.0,38.5,31.7,21.4,0000.0,0013.82,0005.11,0003.84
2023-05-30 08:06:00,,0830.0,5.00,0.00,30.1,28.5,00.0,38.5,31.7,21.4,0000.0,0013.70,0005.13,0003.84
2023-05-30 08:07:00,,0830.1,5.00,0.00,30.1,28.5,00.0,38.5,31.7,21.4,0000.0,0012.81,0005.05,0003.82
2023-05-30 08:08:00,,0830.0,5.01,0.00,30.1,28.5,00.0,38.5,31.7,21.5,0000.0,0012.94,0005.12,0003.82
2023-05-30 08:09:00,,0830.0,5.01,0.00,30.1,28.5,00.0,38.5,31.7,21.4,0000.0,0013.03,0005.17,0003.81
2023-05-30 08:10:00,,0830.0,5.00,0.00,30.1,28.4,00.0,38.5,31.7,21.4,0000.0,0012.46,0005.12,0003.80
2023-05-30 08:11:00,,0830.0,4.99,0.00,30.1,28.4,00.0,38.5,31.6,21.4,0000.0,0012.69,0005.06,0003.79
2023-05-30 08:12:00,,0830.0,5.00,0.00,30.1,28.4,00.0,38.5,31.6,21.5,0000.0,0012.40,0005.00,0003.78
2023-05-30 08:13:00,,0830.1,4.99,0.00,30.1,28.4,00.0,38.5,31.6,21.5,0000.0,0011.76,0004.93,0003.78
2023-05-30 08:14:00,,0830.0,5.01,0.00,30.1,28.4,00.0,38.5,31.6,21.4,0000.0,0011.08,0004.87,0003.78
2023-05-30 08:15:00,,0830.0,5.02,0.00,30.1,28.4,00.0,38.5,31.6,21.4,0000.0,0011.04,0004.85,0003.77
2023-05-30 08:16:00,,0830.0,4.99,0.00,30.1,28.4,00.0,38.5,31.6,21.3,0000.0,0011.04,0004.83,0003.77
2023-05-30 08:17:00,,0830.0,4.99,0.00,30.1,28.4,00.0,38.5,31.6,21.3,0000.0,0010.62,0004.79,0003.75
2023-05-30 08:18:00,,0830.0,4.99,0.00,30.1,28.4,00.0,38.5,31.6,21.4,0000.0,0010.65,0004.79,0003.76
2023-05-30 08:19:00,,0830.0,5.00,0.00,30.1,28.4,00.0,38.5,31.6,21.4,0000.0,0011.32,0004.74,0003.75
2023-05-30 08:20:00,,0830.0,5.01,0.00,30.1,28.4,00.0,38.5,31.6,21.4,0000.0,0011.54,0004.64,0003.74
2023-05-30 08:21:00,,0830.0,5.01,0.00,30.1,28.4,00.0,38.5,31.6,21.4,0000.0,0011.70,0004.62,0003.73
2023-05-30 08:22:00,,0830.0,5.00,0.00,30.1,28.4,00.0,38.5,31.6,21.4,0000.0,0010.88,0004.59,0003.73
2023-05-30 08:23:00,,0830.0,5.00,0.00,30.1,28.4,00.0,38.5,31.6,21.4,0000.0,0011.10,0004.58,0003.72
2023-05-30 08:24:00,,0830.0,4.99,0.00,30.1,28.4,00.0,38.5,31.6,21.5,0000.0,0011.75,0004.56,0003.73
2023-05-30 08:25:00,,0830.0,5.00,0.00,30.1,28.4,00.0,38.5,31.6,21.4,0000.0,0011.48,0004.60,0003.73
2023-05-30 08:26:00,,0830.0,5.00,0.00,30.1,28.4,00.0,38.5,31.6,21.3,0000.0,0011.43,0004.60,0003.73
2023-05-30 08:27:00,,0830.0,5.01,0.00,30.1,28.4,00.0,38.5,31.6,21.2,0000.0,0011.41,0004.63,0003.74
2023-05-30 08:28:00,,0830.0,5.01,0.00,30.1,28.4,00.0,38.5,31.6,21.2,0000.0,0011.45,0004.67,0003.75
2023-05-30 08:29:00,,0830.0,5.00,0.00,30.1,28.4,00.0,38.4,31.6,21.1,0000.0,0011.46,0004.65,0003.76
2023-05-30 08:30:00,,0830.0,4.99,0.00,30.1,28.4,00.0,38.5,31.6,20.9,0000.0,0011.06,0004.64,0003.76
2023-05-30 08:31:00,,0830.0,5.00,0.00,30.1,28.4,00.0,38.4,31.6,20.7,0000.0,0010.93,0004.65,0003.76
2023-05-30 08:32:00,,0830.0,5.01,0.00,30.1,28.4,00.0,38.5,31.6,20.5,0000.0,0010.53,0004.65,0003.76
2023-05-30 08:33:00,,0830.0,5.01,0.00,30.0,28.4,00.0,38.4,31.6,20.5,0000.0,0010.57,0004.66,0003.75
2023-05-30 08:34:00,,0830.0,5.00,0.00,30.0,28.4,00.0,38.4,31.6,20.5,0000.0,0010.34,0004.67,0003.75
2023-05-30 08:35:00,,0830.0,4.99,0.00,30.0,28.3,00.0,38.4,31.6,20.5,0000.0,0009.64,0004.70,0003.73
2023-05-30 08:36:00,,0830.0,5.00,0.00,30.0,28.3,00.0,38.4,31.6,20.5,0000.0,0009.67,0004.69,0003.72
2023-05-30 08:37:00,,0830.0,5.00,0.00,30.0,28.3,00.0,38.4,31.6,20.6,0000.0,0010.31,0004.68,0003.73
2023-05-30 08:38:00,,0830.0,5.00,0.00,30.0,28.3,00.0,38.4,31.6,20.5,0000.0,0010.50,0004.65,0003.70
2023-05-30 08:39:00,,0830.0,5.00,0.00,30.0,28.3,00.0,38.4,31.6,20.6,0000.0,0010.87,0004.65,0003.69
2023-05-30 08:40:00,,0830.0,5.01,0.00,30.0,28.3,00.0,38.4,31.5,20.6,0000.0,0010.94,0004.69,0003.69
2023-05-30 08:41:00,,0830.0,5.01,0.00,30.0,28.3,00.0,38.4,31.5,20.5,0000.0,0010.68,0004.66,0003.67
2023-05-30 08:42:00,,0830.0,5.00,0.00,30.0,28.3,00.0,38.4,31.5,20.7,0000.0,0010.10,0004.61,0003.66
2023-05-30 08:43:00,,0830.0,4.99,0.00,30.0,28.3,00.0,38.4,31.5,20.5,0000.0,0010.80,0004.60,0003.66
2023-05-30 08:44:00,,0830.0,5.00,0.00,30.0,28.3,00.0,38.4,31.5,20.2,0000.0,0011.09,0004.60,0003.66
2023-05-30 08:45:00,,0830.0,5.00,0.00,30.0,28.3,00.0,38.4,31.5,20.2,0000.0,0011.00,0004.58,0003.65
2023-05-30 08:46:00,,0830.0,5.01,0.00,30.0,28.3,00.0,38.4,31.5,20.2,0000.0,0010.94,0004.55,0003.64
2023-05-30 08:47:00,,0830.0,5.00,0.00,30.0,28.3,00.0,38.4,31.5,20.2,0000.0,0010.90,0004.52,0003.65
2023-05-30 08:48:00,,0830.0,5.01,0.00,30.0,28.3,00.0,38.4,31.5,20.3,0000.0,0010.59,0004.57,0003.64
2023-05-30 08:49:00,,0829.9,5.02,0.00,30.0,28.3,00.0,38.4,31.5,20.3,0000.0,0010.63,0004.60,0003.64
2023-05-30 08:50:00,,0830.0,5.00,0.00,30.0,28.3,00.0,38.4,31.5,20.2,0000.0,0010.20,0004.61,0003.63
2023-05-30 08:51:00,,0829.9,5.00,0.00,30.0,28.3,00.0,38.4,31.5,20.2,0000.0,0010.15,0004.61,0003.61
2023-05-30 08:52:00,,0829.9,5.00,0.00,29.9,28.3,00.0,38.4,31.5,20.3,0000.0,0010.33,0004.59,0003.61
2023-05-30 08:53:00,,0830.0,5.00,0.00,29.9,28.3,00.0,38.4,31.5,20.3,0000.0,0010.39,0004.60,0003.61
2023-05-30 08:54:00,,0829.9,5.00,0.00,29.9,28.2,00.0,38.4,31.5,20.2,0000.0,0010.08,0004.59,0003.62
2023-05-30 08:55:00,,0830.0,5.01,0.00,29.9,28.2,00.0,38.4,31.5,20.2,0000.0,0009.54,0004.60,0003.61
2023-05-30 08:56:00,,0829.9,5.01,0.00,29.9,28.2,00.0,38.4,31.5,20.2,0000.0,0009.44,0004.59,0003.60
2023-05-30 08:57:00,,0830.0,5.00,0.00,29.9,28.2,00.0,38.3,31.5,20.1,0000.0,0009.45,0004.58,0003.61
2023-05-30 08:58:00,,0829.9,4.99,0.00,29.9,28.2,00.0,38.3,31.5,20.1,0000.0,0009.72,0004.59,0003.59
2023-05-30 08:59:00,,0829.9,4.99,0.00,29.9,28.2,00.0,38.3,31.4,20.0,0000.0,0009.74,0004.58,0003.59
